Year,Month,Day,Hour,Minute,Value (Times are PST for temperature in C)
2022,10,03,00,00,17.50
2022,10,03,00,01,17.50
2022,10,03,00,02,17.50
2022,10,03,00,03,17.50
2022,10,03,00,04,17.50
2022,10,03,00,05,17.50
2022,10,03,00,06,17.40
2022,10,03,00,07,17.40
2022,10,03,00,08,17.40
2022,10,03,00,09,17.40
2022,10,03,00,10,17.40
2022,10,03,00,11,17.40
2022,10,03,00,12,17.30
2022,10,03,00,13,17.30
2022,10,03,00,14,17.30
2022,10,03,00,15,17.20
2022,10,03,00,16,17.20
2022,10,03,00,17,17.20
2022,10,03,00,18,17.10
2022,10,03,00,19,17.10
2022,10,03,00,20,17.10
2022,10,03,00,21,17.00
2022,10,03,00,22,17.00
2022,10,03,00,23,16.90
2022,10,03,00,24,16.90
2022,10,03,00,25,16.80
2022,10,03,00,26,16.80
2022,10,03,00,27,16.70
2022,10,03,00,28,16.70
2022,10,03,00,29,16.60
2022,10,03,00,30,16.60
2022,10,03,00,31,16.50
2022,10,03,00,32,16.50
2022,10,03,00,33,16.50
2022,10,03,00,34,16.40
2022,10,03,00,35,16.40
2022,10,03,00,36,16.40
2022,10,03,00,37,16.30
2022,10,03,00,38,16.30
2022,10,03,00,39,16.30
2022,10,03,00,40,16.30
2022,10,03,00,41,16.20
2022,10,03,00,42,16.20
2022,10,03,00,43,16.20
2022,10,03,00,44,16.20
2022,10,03,00,45,16.10
2022,10,03,00,46,16.10
2022,10,03,00,47,16.10
2022,10,03,00,48,16.10
2022,10,03,00,49,16.00
2022,10,03,00,50,16.00
2022,10,03,00,51,15.90
2022,10,03,00,52,15.90
2022,10,03,00,53,15.90
2022,10,03,00,54,15.90
2022,10,03,00,55,15.80
2022,10,03,00,56,15.80
2022,10,03,00,57,15.80
2022,10,03,00,58,15.70
2022,10,03,00,59,15.70
2022,10,03,01,00,15.70
2022,10,03,01,01,15.60
2022,10,03,01,02,15.60
2022,10,03,01,03,15.60
2022,10,03,01,04,15.60
2022,10,03,01,05,15.50
2022,10,03,01,06,15.50
2022,10,03,01,07,15.50
2022,10,03,01,08,15.40
2022,10,03,01,09,15.40
2022,10,03,01,10,15.40
2022,10,03,01,11,15.40
2022,10,03,01,12,15.30
2022,10,03,01,13,15.30
2022,10,03,01,14,15.30
2022,10,03,01,15,15.30
2022,10,03,01,16,15.30
2022,10,03,01,17,15.20
2022,10,03,01,18,15.20
2022,10,03,01,19,15.20
2022,10,03,01,20,15.20
2022,10,03,01,21,15.20
2022,10,03,01,22,15.20
2022,10,03,01,23,15.20
2022,10,03,01,24,15.20
2022,10,03,01,25,15.20
2022,10,03,01,26,15.10
2022,10,03,01,27,15.10
2022,10,03,01,28,15.10
2022,10,03,01,29,15.10
2022,10,03,01,30,15.10
2022,10,03,01,31,15.10
2022,10,03,01,32,15.10
2022,10,03,01,33,15.10
2022,10,03,01,34,15.00
2022,10,03,01,35,15.00
2022,10,03,01,36,15.00
2022,10,03,01,37,14.90
2022,10,03,01,38,14.90
2022,10,03,01,39,14.90
2022,10,03,01,40,14.90
2022,10,03,01,41,14.90
2022,10,03,01,42,14.80
2022,10,03,01,43,14.80
2022,10,03,01,44,14.80
2022,10,03,01,45,14.70
2022,10,03,01,46,14.70
2022,10,03,01,47,14.70
2022,10,03,01,48,14.70
2022,10,03,01,49,14.60
2022,10,03,01,50,14.60
2022,10,03,01,51,14.60
2022,10,03,01,52,14.60
2022,10,03,01,53,14.50
2022,10,03,01,54,14.50
2022,10,03,01,55,14.50
2022,10,03,01,56,14.50
2022,10,03,01,57,14.40
2022,10,03,01,58,14.40
2022,10,03,01,59,14.40
2022,10,03,02,00,14.40
2022,10,03,02,01,14.40
2022,10,03,02,02,14.40
2022,10,03,02,03,14.40
2022,10,03,02,04,14.40
2022,10,03,02,05,14.40
2022,10,03,02,06,14.30
2022,10,03,02,07,14.30
2022,10,03,02,08,14.30
2022,10,03,02,09,14.30
2022,10,03,02,10,14.30
2022,10,03,02,11,14.30
2022,10,03,02,12,14.30
2022,10,03,02,13,14.30
2022,10,03,02,14,14.30
2022,10,03,02,15,14.30
2022,10,03,02,16,14.30
2022,10,03,02,17,14.30
2022,10,03,02,18,14.30
2022,10,03,02,19,14.30
2022,10,03,02,20,14.30
2022,10,03,02,21,14.30
2022,10,03,02,22,14.30
2022,10,03,02,23,14.30
2022,10,03,02,24,14.30
2022,10,03,02,25,14.30
2022,10,03,02,26,14.30
2022,10,03,02,27,14.30
2022,10,03,02,28,14.30
2022,10,03,02,29,14.30
2022,10,03,02,30,14.30
2022,10,03,02,31,14.20
2022,10,03,02,32,14.20
2022,10,03,02,33,14.20
2022,10,03,02,34,14.20
2022,10,03,02,35,14.20
2022,10,03,02,36,14.20
2022,10,03,02,37,14.20
2022,10,03,02,38,14.20
2022,10,03,02,39,14.20
2022,10,03,02,40,14.20
2022,10,03,02,41,14.20
2022,10,03,02,42,14.20
2022,10,03,02,43,14.20
2022,10,03,02,44,14.20
2022,10,03,02,45,14.20
2022,10,03,02,46,14.10
2022,10,03,02,47,14.20
2022,10,03,02,48,14.10
2022,10,03,02,49,14.10
2022,10,03,02,50,14.10
2022,10,03,02,51,14.10
2022,10,03,02,52,14.10
2022,10,03,02,53,14.10
2022,10,03,02,54,14.10
2022,10,03,02,55,14.10
2022,10,03,02,56,14.10
2022,10,03,02,57,14.10
2022,10,03,02,58,14.00
2022,10,03,02,59,14.00
2022,10,03,03,00,14.00
2022,10,03,03,01,14.00
2022,10,03,03,02,14.00
2022,10,03,03,03,14.00
2022,10,03,03,04,14.00
2022,10,03,03,05,13.90
2022,10,03,03,06,13.90
2022,10,03,03,07,13.90
2022,10,03,03,08,13.90
2022,10,03,03,09,13.90
2022,10,03,03,10,13.90
2022,10,03,03,11,13.90
2022,10,03,03,12,13.90
2022,10,03,03,13,13.80
2022,10,03,03,14,13.80
2022,10,03,03,15,13.80
2022,10,03,03,16,13.80
2022,10,03,03,17,13.80
2022,10,03,03,18,13.80
2022,10,03,03,19,13.80
2022,10,03,03,20,13.80
2022,10,03,03,21,13.70
2022,10,03,03,22,13.70
2022,10,03,03,23,13.70
2022,10,03,03,24,13.70
2022,10,03,03,25,13.70
2022,10,03,03,26,13.70
2022,10,03,03,27,13.70
2022,10,03,03,28,13.70
2022,10,03,03,29,13.60
2022,10,03,03,30,13.60
2022,10,03,03,31,13.60
2022,10,03,03,32,13.60
2022,10,03,03,33,13.60
2022,10,03,03,34,13.60
2022,10,03,03,35,13.60
2022,10,03,03,36,13.50
2022,10,03,03,37,13.50
2022,10,03,03,38,13.50
2022,10,03,03,39,13.50
2022,10,03,03,40,13.50
2022,10,03,03,41,13.50
2022,10,03,03,42,13.40
2022,10,03,03,43,13.40
2022,10,03,03,44,13.40
2022,10,03,03,45,13.40
2022,10,03,03,46,13.40
2022,10,03,03,47,13.40
2022,10,03,03,48,13.40
2022,10,03,03,49,13.40
2022,10,03,03,50,13.40
2022,10,03,03,51,13.40
2022,10,03,03,52,13.40
2022,10,03,03,53,13.40
2022,10,03,03,54,13.40
2022,10,03,03,55,13.40
2022,10,03,03,56,13.40
2022,10,03,03,57,13.40
2022,10,03,03,58,13.40
2022,10,03,03,59,13.40
2022,10,03,04,00,13.40
2022,10,03,04,01,13.40
2022,10,03,04,02,13.40
2022,10,03,04,03,13.40
2022,10,03,04,04,13.40
2022,10,03,04,05,13.40
2022,10,03,04,06,13.40
2022,10,03,04,07,13.40
2022,10,03,04,08,13.40
2022,10,03,04,09,13.40
2022,10,03,04,10,13.40
2022,10,03,04,11,13.40
2022,10,03,04,12,13.40
2022,10,03,04,13,13.40
2022,10,03,04,14,13.40
2022,10,03,04,15,13.40
2022,10,03,04,16,13.40
2022,10,03,04,17,13.40
2022,10,03,04,18,13.50
2022,10,03,04,19,13.50
2022,10,03,04,20,13.50
2022,10,03,04,21,13.60
2022,10,03,04,22,13.60
2022,10,03,04,23,13.70
2022,10,03,04,24,13.70
2022,10,03,04,25,13.70
2022,10,03,04,26,13.70
2022,10,03,04,27,13.80
2022,10,03,04,28,13.80
2022,10,03,04,29,13.80
2022,10,03,04,30,13.80
2022,10,03,04,31,13.90
2022,10,03,04,32,13.90
2022,10,03,04,33,13.90
2022,10,03,04,34,14.00
2022,10,03,04,35,14.00
2022,10,03,04,36,14.00
2022,10,03,04,37,14.10
2022,10,03,04,38,14.10
2022,10,03,04,39,14.10
2022,10,03,04,40,14.20
2022,10,03,04,41,14.20
2022,10,03,04,42,14.20
2022,10,03,04,43,14.20
2022,10,03,04,44,14.20
2022,10,03,04,45,14.20
2022,10,03,04,46,14.30
2022,10,03,04,47,14.30
2022,10,03,04,48,14.30
2022,10,03,04,49,14.30
2022,10,03,04,50,14.30
2022,10,03,04,51,14.30
2022,10,03,04,52,14.30
2022,10,03,04,53,14.30
2022,10,03,04,54,14.30
2022,10,03,04,55,14.30
2022,10,03,04,56,14.30
2022,10,03,04,57,14.30
2022,10,03,04,58,14.30
2022,10,03,04,59,14.30
2022,10,03,05,00,14.30
2022,10,03,05,01,14.30
2022,10,03,05,02,14.30
2022,10,03,05,03,14.30
2022,10,03,05,04,14.30
2022,10,03,05,05,14.30
2022,10,03,05,06,14.30
2022,10,03,05,07,14.30
2022,10,03,05,08,14.30
2022,10,03,05,09,14.30
2022,10,03,05,10,14.20
2022,10,03,05,11,14.20
2022,10,03,05,12,14.20
2022,10,03,05,13,14.20
2022,10,03,05,14,14.20
2022,10,03,05,15,14.20
2022,10,03,05,16,14.20
2022,10,03,05,17,14.20
2022,10,03,05,18,14.10
2022,10,03,05,19,14.10
2022,10,03,05,20,14.10
2022,10,03,05,21,14.10
2022,10,03,05,22,14.10
2022,10,03,05,23,14.10
2022,10,03,05,24,14.00
2022,10,03,05,25,14.00
2022,10,03,05,26,14.00
2022,10,03,05,27,13.90
2022,10,03,05,28,13.90
2022,10,03,05,29,13.90
2022,10,03,05,30,13.90
2022,10,03,05,31,13.90
2022,10,03,05,32,13.90
2022,10,03,05,33,13.80
2022,10,03,05,34,13.80
2022,10,03,05,35,13.80
2022,10,03,05,36,13.80
2022,10,03,05,37,13.80
2022,10,03,05,38,13.70
2022,10,03,05,39,13.70
2022,10,03,05,40,13.70
2022,10,03,05,41,13.70
2022,10,03,05,42,13.70
2022,10,03,05,43,13.70
2022,10,03,05,44,13.60
2022,10,03,05,45,13.60
2022,10,03,05,46,13.60
2022,10,03,05,47,13.60
2022,10,03,05,48,13.50
2022,10,03,05,49,13.50
2022,10,03,05,50,13.50
2022,10,03,05,51,13.40
2022,10,03,05,52,13.40
2022,10,03,05,53,13.40
2022,10,03,05,54,13.40
2022,10,03,05,55,13.30
2022,10,03,05,56,13.30
2022,10,03,05,57,13.30
2022,10,03,05,58,13.30
2022,10,03,05,59,13.30
2022,10,03,06,00,13.20
2022,10,03,06,01,13.20
2022,10,03,06,02,13.20
2022,10,03,06,03,13.20
2022,10,03,06,04,13.20
2022,10,03,06,05,13.20
2022,10,03,06,06,13.20
2022,10,03,06,07,13.20
2022,10,03,06,08,13.10
2022,10,03,06,09,13.10
2022,10,03,06,10,13.10
2022,10,03,06,11,13.10
2022,10,03,06,12,13.10
2022,10,03,06,13,13.10
2022,10,03,06,14,13.10
2022,10,03,06,15,13.10
2022,10,03,06,16,13.10
2022,10,03,06,17,13.10
2022,10,03,06,18,13.00
2022,10,03,06,19,13.00
2022,10,03,06,20,13.00
2022,10,03,06,21,13.00
2022,10,03,06,22,13.00
2022,10,03,06,23,13.00
2022,10,03,06,24,12.90
2022,10,03,06,25,12.90
2022,10,03,06,26,12.90
2022,10,03,06,27,12.90
2022,10,03,06,28,12.90
2022,10,03,06,29,12.90
2022,10,03,06,30,12.80
2022,10,03,06,31,12.80
2022,10,03,06,32,12.80
2022,10,03,06,33,12.80
2022,10,03,06,34,12.80
2022,10,03,06,35,12.80
2022,10,03,06,36,12.70
2022,10,03,06,37,12.70
2022,10,03,06,38,12.70
2022,10,03,06,39,12.70
2022,10,03,06,40,12.70
2022,10,03,06,41,12.70
2022,10,03,06,42,12.70
2022,10,03,06,43,12.60
2022,10,03,06,44,12.60
2022,10,03,06,45,12.60
2022,10,03,06,46,12.60
2022,10,03,06,47,12.60
2022,10,03,06,48,12.60
2022,10,03,06,49,12.60
2022,10,03,06,50,12.50
2022,10,03,06,51,12.50
2022,10,03,06,52,12.50
2022,10,03,06,53,12.40
2022,10,03,06,54,12.40
2022,10,03,06,55,12.40
2022,10,03,06,56,12.40
2022,10,03,06,57,12.40
2022,10,03,06,58,12.30
2022,10,03,06,59,12.30
2022,10,03,07,00,12.30
2022,10,03,07,01,12.30
2022,10,03,07,02,12.30
2022,10,03,07,03,12.30
2022,10,03,07,04,12.30
2022,10,03,07,05,12.30
2022,10,03,07,06,12.30
2022,10,03,07,07,12.30
2022,10,03,07,08,12.30
2022,10,03,07,09,12.30
2022,10,03,07,10,12.30
2022,10,03,07,11,12.20
2022,10,03,07,12,12.20
2022,10,03,07,13,12.20
2022,10,03,07,14,12.20
2022,10,03,07,15,12.20
2022,10,03,07,16,12.30
2022,10,03,07,17,12.20
2022,10,03,07,18,12.20
2022,10,03,07,19,12.30
2022,10,03,07,20,12.30
2022,10,03,07,21,12.30
2022,10,03,07,22,12.20
2022,10,03,07,23,12.20
2022,10,03,07,24,12.20
2022,10,03,07,25,12.20
2022,10,03,07,26,12.20
2022,10,03,07,27,12.20
2022,10,03,07,28,12.20
2022,10,03,07,29,12.20
2022,10,03,07,30,12.30
2022,10,03,07,31,12.30
2022,10,03,07,32,12.30
2022,10,03,07,33,12.30
2022,10,03,07,34,12.30
2022,10,03,07,35,12.30
2022,10,03,07,36,12.30
2022,10,03,07,37,12.30
2022,10,03,07,38,12.30
2022,10,03,07,39,12.30
2022,10,03,07,40,12.30
2022,10,03,07,41,12.30
2022,10,03,07,42,12.40
2022,10,03,07,43,12.40
2022,10,03,07,44,12.40
2022,10,03,07,45,12.40
2022,10,03,07,46,12.40
2022,10,03,07,47,12.50
2022,10,03,07,48,12.50
2022,10,03,07,49,12.60
2022,10,03,07,50,12.60
2022,10,03,07,51,12.60
2022,10,03,07,52,12.70
2022,10,03,07,53,12.70
2022,10,03,07,54,12.70
2022,10,03,07,55,12.70
2022,10,03,07,56,12.80
2022,10,03,07,57,12.80
2022,10,03,07,58,12.80
2022,10,03,07,59,12.80
2022,10,03,08,00,12.90
2022,10,03,08,01,12.90
2022,10,03,08,02,12.90
2022,10,03,08,03,13.00
2022,10,03,08,04,13.00
2022,10,03,08,05,13.10
2022,10,03,08,06,13.10
2022,10,03,08,07,13.20
2022,10,03,08,08,13.20
2022,10,03,08,09,13.30
2022,10,03,08,10,13.30
2022,10,03,08,11,13.40
2022,10,03,08,12,13.40
2022,10,03,08,13,13.50
2022,10,03,08,14,13.60
2022,10,03,08,15,13.70
2022,10,03,08,16,13.70
2022,10,03,08,17,13.80
2022,10,03,08,18,13.80
2022,10,03,08,19,13.80
2022,10,03,08,20,13.90
2022,10,03,08,21,13.90
2022,10,03,08,22,14.00
2022,10,03,08,23,14.00
2022,10,03,08,24,14.00
2022,10,03,08,25,14.10
2022,10,03,08,26,14.10
2022,10,03,08,27,14.20
2022,10,03,08,28,14.20
2022,10,03,08,29,14.20
2022,10,03,08,30,14.20
2022,10,03,08,31,14.30
2022,10,03,08,32,14.30
2022,10,03,08,33,14.30
2022,10,03,08,34,14.40
2022,10,03,08,35,14.40
2022,10,03,08,36,14.40
2022,10,03,08,37,14.50
2022,10,03,08,38,14.60
2022,10,03,08,39,14.60
2022,10,03,08,40,14.70
2022,10,03,08,41,14.70
2022,10,03,08,42,14.80
2022,10,03,08,43,14.80
2022,10,03,08,44,14.80
2022,10,03,08,45,14.90
2022,10,03,08,46,15.00
2022,10,03,08,47,15.00
2022,10,03,08,48,15.10
2022,10,03,08,49,15.10
2022,10,03,08,50,15.20
2022,10,03,08,51,15.20
2022,10,03,08,52,15.30
2022,10,03,08,53,15.30
2022,10,03,08,54,15.40
2022,10,03,08,55,15.40
2022,10,03,08,56,15.40
2022,10,03,08,57,15.50
2022,10,03,08,58,15.60
2022,10,03,08,59,15.60
2022,10,03,09,00,15.70
2022,10,03,09,01,15.70
2022,10,03,09,02,15.80
2022,10,03,09,03,15.80
2022,10,03,09,04,15.90
2022,10,03,09,05,16.00
2022,10,03,09,06,16.10
2022,10,03,09,07,16.10
2022,10,03,09,08,16.20
2022,10,03,09,09,16.30
2022,10,03,09,10,16.30
2022,10,03,09,11,16.40
2022,10,03,09,12,16.40
2022,10,03,09,13,16.50
2022,10,03,09,14,16.60
2022,10,03,09,15,16.70
2022,10,03,09,16,16.80
2022,10,03,09,17,16.90
2022,10,03,09,18,16.90
2022,10,03,09,19,17.00
2022,10,03,09,20,17.10
2022,10,03,09,21,17.10
2022,10,03,09,22,17.10
2022,10,03,09,23,17.20
2022,10,03,09,24,17.20
2022,10,03,09,25,17.20
2022,10,03,09,26,17.20
2022,10,03,09,27,17.30
2022,10,03,09,28,17.30
2022,10,03,09,29,17.30
2022,10,03,09,30,17.30
2022,10,03,09,31,17.30
2022,10,03,09,32,17.30
2022,10,03,09,33,17.30
2022,10,03,09,34,17.30
2022,10,03,09,35,17.30
2022,10,03,09,36,17.30
2022,10,03,09,37,17.30
2022,10,03,09,38,17.30
2022,10,03,09,39,17.30
2022,10,03,09,40,17.20
2022,10,03,09,41,17.20
2022,10,03,09,42,17.20
2022,10,03,09,43,17.20
2022,10,03,09,44,17.30
2022,10,03,09,45,17.30
2022,10,03,09,46,17.30
2022,10,03,09,47,17.30
2022,10,03,09,48,17.30
2022,10,03,09,49,17.30
2022,10,03,09,50,17.30
2022,10,03,09,51,17.30
2022,10,03,09,52,17.30
2022,10,03,09,53,17.30
2022,10,03,09,54,17.30
2022,10,03,09,55,17.30
2022,10,03,09,56,17.30
2022,10,03,09,57,17.30
2022,10,03,09,58,17.40
2022,10,03,09,59,17.40
2022,10,03,10,00,17.40
2022,10,03,10,01,17.40
2022,10,03,10,02,17.40
2022,10,03,10,03,17.40
2022,10,03,10,04,17.40
2022,10,03,10,05,17.50
2022,10,03,10,06,17.50
2022,10,03,10,07,17.50
2022,10,03,10,08,17.60
2022,10,03,10,09,17.60
2022,10,03,10,10,17.60
2022,10,03,10,11,17.70
2022,10,03,10,12,17.70
2022,10,03,10,13,17.70
2022,10,03,10,14,17.70
2022,10,03,10,15,17.80
2022,10,03,10,16,17.80
2022,10,03,10,17,17.80
2022,10,03,10,18,17.80
2022,10,03,10,19,17.80
2022,10,03,10,20,17.80
2022,10,03,10,21,17.80
2022,10,03,10,22,17.90
2022,10,03,10,23,17.90
2022,10,03,10,24,17.90
2022,10,03,10,25,17.90
2022,10,03,10,26,17.90
2022,10,03,10,27,18.00
2022,10,03,10,28,18.00
2022,10,03,10,29,18.00
2022,10,03,10,30,18.00
2022,10,03,10,31,18.00
2022,10,03,10,32,18.00
2022,10,03,10,33,18.00
2022,10,03,10,34,18.10
2022,10,03,10,35,18.10
2022,10,03,10,36,18.10
2022,10,03,10,37,18.20
2022,10,03,10,38,18.20
2022,10,03,10,39,18.20
2022,10,03,10,40,18.20
2022,10,03,10,41,18.30
2022,10,03,10,42,18.30
2022,10,03,10,43,18.30
2022,10,03,10,44,18.40
2022,10,03,10,45,18.40
2022,10,03,10,46,18.50
2022,10,03,10,47,18.50
2022,10,03,10,48,18.60
2022,10,03,10,49,18.60
2022,10,03,10,50,18.70
2022,10,03,10,51,18.70
2022,10,03,10,52,18.80
2022,10,03,10,53,18.80
2022,10,03,10,54,18.80
2022,10,03,10,55,18.90
2022,10,03,10,56,19.00
2022,10,03,10,57,19.00
2022,10,03,10,58,19.10
2022,10,03,10,59,19.10
2022,10,03,11,00,19.20
2022,10,03,11,01,19.20
2022,10,03,11,02,19.30
2022,10,03,11,03,19.30
2022,10,03,11,04,19.30
2022,10,03,11,05,19.30
2022,10,03,11,06,19.30
2022,10,03,11,07,19.40
2022,10,03,11,08,19.40
2022,10,03,11,09,19.40
2022,10,03,11,10,19.40
2022,10,03,11,11,19.40
2022,10,03,11,12,19.40
2022,10,03,11,13,19.40
2022,10,03,11,14,19.40
2022,10,03,11,15,19.50
2022,10,03,11,16,19.50
2022,10,03,11,17,19.60
2022,10,03,11,18,19.60
2022,10,03,11,19,19.60
2022,10,03,11,20,19.70
2022,10,03,11,21,19.70
2022,10,03,11,22,19.70
2022,10,03,11,23,19.70
2022,10,03,11,24,19.80
2022,10,03,11,25,19.80
2022,10,03,11,26,19.80
2022,10,03,11,27,19.80
2022,10,03,11,28,19.80
2022,10,03,11,29,19.80
2022,10,03,11,30,19.90
2022,10,03,11,31,19.90
2022,10,03,11,32,19.90
2022,10,03,11,33,19.90
2022,10,03,11,34,19.90
2022,10,03,11,35,20.00
2022,10,03,11,36,20.00
2022,10,03,11,37,20.00
2022,10,03,11,38,20.00
2022,10,03,11,39,20.10
2022,10,03,11,40,20.10
2022,10,03,11,41,20.10
2022,10,03,11,42,20.10
2022,10,03,11,43,20.10
2022,10,03,11,44,20.20
2022,10,03,11,45,20.20
2022,10,03,11,46,20.30
2022,10,03,11,47,20.30
2022,10,03,11,48,20.30
2022,10,03,11,49,20.40
2022,10,03,11,50,20.40
2022,10,03,11,51,20.50
2022,10,03,11,52,20.50
2022,10,03,11,53,20.60
2022,10,03,11,54,20.60
2022,10,03,11,55,20.60
2022,10,03,11,56,20.70
2022,10,03,11,57,20.70
2022,10,03,11,58,20.70
2022,10,03,11,59,20.80
2022,10,03,12,00,20.80
2022,10,03,12,01,20.80
2022,10,03,12,02,20.80
2022,10,03,12,03,20.80
2022,10,03,12,04,20.80
2022,10,03,12,05,20.80
2022,10,03,12,06,20.80
2022,10,03,12,07,20.80
2022,10,03,12,08,20.90
2022,10,03,12,09,20.90
2022,10,03,12,10,20.90
2022,10,03,12,11,21.00
2022,10,03,12,12,21.10
2022,10,03,12,13,21.10
2022,10,03,12,14,21.10
2022,10,03,12,15,21.20
2022,10,03,12,16,21.20
2022,10,03,12,17,21.20
2022,10,03,12,18,21.30
2022,10,03,12,19,21.30
2022,10,03,12,20,21.30
2022,10,03,12,21,21.30
2022,10,03,12,22,21.30
2022,10,03,12,23,21.40
2022,10,03,12,24,21.40
2022,10,03,12,25,21.50
2022,10,03,12,26,21.50
2022,10,03,12,27,21.50
2022,10,03,12,28,21.50
2022,10,03,12,29,21.50
2022,10,03,12,30,21.50
2022,10,03,12,31,21.50
2022,10,03,12,32,21.50
2022,10,03,12,33,21.40
2022,10,03,12,34,21.40
2022,10,03,12,35,21.40
2022,10,03,12,36,21.50
2022,10,03,12,37,21.50
2022,10,03,12,38,21.50
2022,10,03,12,39,21.60
2022,10,03,12,40,21.60
2022,10,03,12,41,21.60
2022,10,03,12,42,21.60
2022,10,03,12,43,21.70
2022,10,03,12,44,21.70
2022,10,03,12,45,21.70
2022,10,03,12,46,21.70
2022,10,03,12,47,21.60
2022,10,03,12,48,21.60
2022,10,03,12,49,21.60
2022,10,03,12,50,21.50
2022,10,03,12,51,21.50
2022,10,03,12,52,21.40
2022,10,03,12,53,21.40
2022,10,03,12,54,21.40
2022,10,03,12,55,21.40
2022,10,03,12,56,21.30
2022,10,03,12,57,21.30
2022,10,03,12,58,21.40
2022,10,03,12,59,21.40
2022,10,03,13,00,21.50
2022,10,03,13,01,21.50
2022,10,03,13,02,21.50
2022,10,03,13,03,21.60
2022,10,03,13,04,21.60
2022,10,03,13,05,21.70
2022,10,03,13,06,21.70
2022,10,03,13,07,21.80
2022,10,03,13,08,21.90
2022,10,03,13,09,21.90
2022,10,03,13,10,22.00
2022,10,03,13,11,22.10
2022,10,03,13,12,22.10
2022,10,03,13,13,22.10
2022,10,03,13,14,22.10
2022,10,03,13,15,22.10
2022,10,03,13,16,22.20
2022,10,03,13,17,22.20
2022,10,03,13,18,22.20
2022,10,03,13,19,22.20
2022,10,03,13,20,22.20
2022,10,03,13,21,22.20
2022,10,03,13,22,22.20
2022,10,03,13,23,22.20
2022,10,03,13,24,22.10
2022,10,03,13,25,22.10
2022,10,03,13,26,22.10
2022,10,03,13,27,22.10
2022,10,03,13,28,22.10
2022,10,03,13,29,22.10
2022,10,03,13,30,22.20
2022,10,03,13,31,22.30
2022,10,03,13,32,22.40
2022,10,03,13,33,22.50
2022,10,03,13,34,22.50
2022,10,03,13,35,22.60
2022,10,03,13,36,22.60
2022,10,03,13,37,22.70
2022,10,03,13,38,22.70
2022,10,03,13,39,22.70
2022,10,03,13,40,22.80
2022,10,03,13,41,22.80
2022,10,03,13,42,22.80
2022,10,03,13,43,22.80
2022,10,03,13,44,22.80
2022,10,03,13,45,22.80
2022,10,03,13,46,22.80
2022,10,03,13,47,22.90
2022,10,03,13,48,22.90
2022,10,03,13,49,23.00
2022,10,03,13,50,23.00
2022,10,03,13,51,23.10
2022,10,03,13,52,23.20
2022,10,03,13,53,23.20
2022,10,03,13,54,23.30
2022,10,03,13,55,23.30
2022,10,03,13,56,23.40
2022,10,03,13,57,23.50
2022,10,03,13,58,23.50
2022,10,03,13,59,23.60
2022,10,03,14,00,23.60
2022,10,03,14,01,23.70
2022,10,03,14,02,23.70
2022,10,03,14,03,23.60
2022,10,03,14,04,23.60
2022,10,03,14,05,23.60
2022,10,03,14,06,23.60
2022,10,03,14,07,23.60
2022,10,03,14,08,23.60
2022,10,03,14,09,23.50
2022,10,03,14,10,23.40
2022,10,03,14,11,23.40
2022,10,03,14,12,23.40
2022,10,03,14,13,23.40
2022,10,03,14,14,23.40
2022,10,03,14,15,23.40
2022,10,03,14,16,23.40
2022,10,03,14,17,23.40
2022,10,03,14,18,23.40
2022,10,03,14,19,23.30
2022,10,03,14,20,23.30
2022,10,03,14,21,23.30
2022,10,03,14,22,23.30
2022,10,03,14,23,23.30
2022,10,03,14,24,23.20
2022,10,03,14,25,23.20
2022,10,03,14,26,23.20
2022,10,03,14,27,23.20
2022,10,03,14,28,23.20
2022,10,03,14,29,23.20
2022,10,03,14,30,23.20
2022,10,03,14,31,23.20
2022,10,03,14,32,23.20
2022,10,03,14,33,23.20
2022,10,03,14,34,23.20
2022,10,03,14,35,23.20
2022,10,03,14,36,23.30
2022,10,03,14,37,23.30
2022,10,03,14,38,23.40
2022,10,03,14,39,23.50
2022,10,03,14,40,23.50
2022,10,03,14,41,23.60
2022,10,03,14,42,23.70
2022,10,03,14,43,23.70
2022,10,03,14,44,23.80
2022,10,03,14,45,23.80
2022,10,03,14,46,23.80
2022,10,03,14,47,23.90
2022,10,03,14,48,23.90
2022,10,03,14,49,24.00
2022,10,03,14,50,24.00
2022,10,03,14,51,24.00
2022,10,03,14,52,24.00
2022,10,03,14,53,24.00
2022,10,03,14,54,24.00
2022,10,03,14,55,24.10
2022,10,03,14,56,24.10
2022,10,03,14,57,24.10
2022,10,03,14,58,24.10
2022,10,03,14,59,24.10
2022,10,03,15,00,24.10
2022,10,03,15,01,24.20
2022,10,03,15,02,24.20
2022,10,03,15,03,24.20
2022,10,03,15,04,24.20
2022,10,03,15,05,24.20
2022,10,03,15,06,24.20
2022,10,03,15,07,24.10
2022,10,03,15,08,24.10
2022,10,03,15,09,24.10
2022,10,03,15,10,24.00
2022,10,03,15,11,24.00
2022,10,03,15,12,23.90
2022,10,03,15,13,23.80
2022,10,03,15,14,23.70
2022,10,03,15,15,23.70
2022,10,03,15,16,23.70
2022,10,03,15,17,23.60
2022,10,03,15,18,23.60
2022,10,03,15,19,23.60
2022,10,03,15,20,23.60
2022,10,03,15,21,23.60
2022,10,03,15,22,23.50
2022,10,03,15,23,23.50
2022,10,03,15,24,23.50
2022,10,03,15,25,23.50
2022,10,03,15,26,23.50
2022,10,03,15,27,23.40
2022,10,03,15,28,23.40
2022,10,03,15,29,23.40
2022,10,03,15,30,23.40
2022,10,03,15,31,23.30
2022,10,03,15,32,23.30
2022,10,03,15,33,23.30
2022,10,03,15,34,23.30
2022,10,03,15,35,23.30
2022,10,03,15,36,23.30
2022,10,03,15,37,23.30
2022,10,03,15,38,23.40
2022,10,03,15,39,23.40
2022,10,03,15,40,23.40
2022,10,03,15,41,23.40
2022,10,03,15,42,23.40
2022,10,03,15,43,23.50
2022,10,03,15,44,23.50
2022,10,03,15,45,23.60
2022,10,03,15,46,23.60
2022,10,03,15,47,23.70
2022,10,03,15,48,23.70
2022,10,03,15,49,23.70
2022,10,03,15,50,23.80
2022,10,03,15,51,23.80
2022,10,03,15,52,23.80
2022,10,03,15,53,23.80
2022,10,03,15,54,23.80
2022,10,03,15,55,23.90
2022,10,03,15,56,23.90
2022,10,03,15,57,23.90
2022,10,03,15,58,23.90
2022,10,03,15,59,23.90
2022,10,03,16,00,23.90
2022,10,03,16,01,23.90
2022,10,03,16,02,23.80
2022,10,03,16,03,23.80
2022,10,03,16,04,23.90
2022,10,03,16,05,23.80
2022,10,03,16,06,23.90
2022,10,03,16,07,23.90
2022,10,03,16,08,23.90
2022,10,03,16,09,23.90
2022,10,03,16,10,23.90
2022,10,03,16,11,23.90
2022,10,03,16,12,23.90
2022,10,03,16,13,23.90
2022,10,03,16,14,23.90
2022,10,03,16,15,23.80
2022,10,03,16,16,23.80
2022,10,03,16,17,23.70
2022,10,03,16,18,23.70
2022,10,03,16,19,23.60
2022,10,03,16,20,23.60
2022,10,03,16,21,23.50
2022,10,03,16,22,23.50
2022,10,03,16,23,23.40
2022,10,03,16,24,23.30
2022,10,03,16,25,23.30
2022,10,03,16,26,23.30
2022,10,03,16,27,23.30
2022,10,03,16,28,23.30
2022,10,03,16,29,23.30
2022,10,03,16,30,23.30
2022,10,03,16,31,23.30
2022,10,03,16,32,23.30
2022,10,03,16,33,23.30
2022,10,03,16,34,23.30
2022,10,03,16,35,23.20
2022,10,03,16,36,23.20
2022,10,03,16,37,23.20
2022,10,03,16,38,23.20
2022,10,03,16,39,23.20
2022,10,03,16,40,23.20
2022,10,03,16,41,23.10
2022,10,03,16,42,23.00
2022,10,03,16,43,23.00
2022,10,03,16,44,22.90
2022,10,03,16,45,22.80
2022,10,03,16,46,22.80
2022,10,03,16,47,22.80
2022,10,03,16,48,22.70
2022,10,03,16,49,22.70
2022,10,03,16,50,22.70
2022,10,03,16,51,22.70
2022,10,03,16,52,22.70
2022,10,03,16,53,22.70
2022,10,03,16,54,22.60
2022,10,03,16,55,22.60
2022,10,03,16,56,22.60
2022,10,03,16,57,22.50
2022,10,03,16,58,22.50
2022,10,03,16,59,22.40
2022,10,03,17,00,22.40
2022,10,03,17,01,22.40
2022,10,03,17,02,22.40
2022,10,03,17,03,22.40
2022,10,03,17,04,22.30
2022,10,03,17,05,22.30
2022,10,03,17,06,22.30
2022,10,03,17,07,22.30
2022,10,03,17,08,22.30
2022,10,03,17,09,22.20
2022,10,03,17,10,22.20
2022,10,03,17,11,22.20
2022,10,03,17,12,22.20
2022,10,03,17,13,22.20
2022,10,03,17,14,22.10
2022,10,03,17,15,22.10
2022,10,03,17,16,22.10
2022,10,03,17,17,22.10
2022,10,03,17,18,22.00
2022,10,03,17,19,22.00